User: anonymous   Login
Location: Unspecified
(0.0000°N, 0.0000°E)
Time: 19:01:25
(UTC+00:00)
Language:

STARLINK-1477 - Orbit

View from above orbital plane
View from above orbital plane
View from above satellite
View from above satellite

Ground track
Ground track

The orbit is defined by the following mean orbital elements,

1 45754U          26145.48510971 +.00000000 +00000-0 +14134-2 0 00006
2 45754  53.0471 222.8391 0000702 315.4496  44.6441 15.18213842    03
Epoch (UTC): 25 May 2026 11:38:33
Eccentricity: 0.0000702
inclination: 53.0471°
perigee height: 511 km
apogee height: 512 km
right ascension of ascending node: 222.8391°
argument of perigee: 315.4496°
revolutions per day: 15.18213842
mean anomaly at epoch: 44.6441°

The dashed part of the orbit path shows where the satellite is in the earth's shadow,  

DLR